Weather History for Palm Springs, CA

Change the Weather History Date:

Sunday, November 18, 2012

  Actual Average Record
Temperature  
Mean Temperature 66 °F 63 °F  
Max Temperature 78 °F 76 °F 93 °F (1936)
Min Temperature 53 °F 51 °F 31 °F (1964)
Degree Days  
Heating Degree Days 0 3  
Month to date heating degree days 34 31  
Since 1 July heating degree days 34 35  
Cooling Degree Days 1 2  
Month to date cooling degree days 88 66  
Year to date cooling degree days 4677 4128  
Growing Degree Days 15 (Base 50)    
Moisture  
Dew Point 45 °F    
Average Humidity 54    
Maximum Humidity 77    
Minimum Humidity 31    
Precipitation  
Precipitation 0.00 in 0.02 in 1.04 in (1964)
Month to date precipitation T 0.25  
Year to date precipitation 1.82 4.58  
Since 1 July precipitation 1.03 1.64  
Snow  
Snow 0.00 in - - ()
Month to date snowfall 0.0  
Year to date snowfall 0.0  
Since 1 July snowfall 0.0  
Snow Depth 0.00 in    
Sea Level Pressure  
Sea Level Pressure 30.04 in    
Wind  
Wind Speed 3 mph (WNW)    
Max Wind Speed 13 mph    
Max Gust Speed 17 mph    
Visibility 10 miles    
Events      
T = Trace of Precipitation, MM = Missing Value Source: NWS Daily Summary

Daily Weather History Graph

Daily Weather History Graph

Search for Another Location

Airport:

Trip Planner

Search our weather history database for the weather conditions in past years. The results will help you decide how hot, cold, wet, or windy it might be!

Date:

Astronomy

Nov. 18, 2012 Rise Set
Actual Time 6:21 AM PST 4:40 PM PST
Civil Twilight 5:54 AM PST 5:07 PM PST
Nautical Twilight 5:24 AM PST 5:37 PM PST
Astronomical Twilight 4:54 AM PST 6:07 PM PST
Moon 10:54 AM PST (11/18) 10:01 PM PST (11/18)
Length of Visible Light 11h 12m
Length of Day
10h 19m
Waxing Crescent, 31% of the Moon is Illuminated
Nov 18
Waxing Crescent
Nov 20
First Quarter
Nov 28
Full
Dec 6
Last Quarter
Dec 13
New

Hourly Weather History & Observations

Time (PST) Temp. Dew Point Humidity Pressure Visibility Wind Dir Wind Speed Gust Speed Precip Events Conditions
12:53 AM 57.9 °F 50.0 °F 75% 30.02 in 10.0 mi WSW 3.5 mph - N/A   Clear
1:53 AM 60.1 °F 48.9 °F 67% 30.01 in 10.0 mi North 6.9 mph - N/A   Clear
2:53 AM 57.9 °F 48.0 °F 70% 30.00 in 10.0 mi Calm Calm - N/A   Clear
3:53 AM 57.0 °F 48.0 °F 72% 30.00 in 10.0 mi Calm Calm - N/A   Clear
4:53 AM 57.0 °F 46.9 °F 69% 30.01 in 10.0 mi WNW 3.5 mph - N/A   Clear
5:53 AM 55.9 °F 48.0 °F 75% 30.02 in 10.0 mi Calm Calm - N/A   Clear
6:53 AM 57.9 °F 46.9 °F 67% 30.03 in 10.0 mi Calm Calm - N/A   Clear
7:53 AM 62.1 °F 46.9 °F 58% 30.06 in 10.0 mi Calm Calm - N/A   Partly Cloudy
8:53 AM 66.0 °F 48.0 °F 52% 30.06 in 10.0 mi SSW 4.6 mph - N/A   Partly Cloudy
9:53 AM 71.1 °F 46.0 °F 41% 30.07 in 10.0 mi South 5.8 mph - N/A   Partly Cloudy
10:53 AM 73.0 °F 44.1 °F 35% 30.06 in 10.0 mi Variable 3.5 mph - N/A   Partly Cloudy
11:53 AM 75.0 °F 43.0 °F 32% 30.04 in 10.0 mi Variable 3.5 mph - N/A   Clear
12:53 PM 75.9 °F 43.0 °F 31% 30.02 in 10.0 mi SW 4.6 mph - N/A   Partly Cloudy
1:53 PM 75.9 °F 43.0 °F 31% 30.01 in 10.0 mi Variable 4.6 mph - N/A   Clear
2:53 PM 75.9 °F 42.1 °F 30% 30.02 in 10.0 mi Calm Calm - N/A   Clear
3:53 PM 75.0 °F 42.1 °F 31% 30.01 in 10.0 mi NW 10.4 mph - N/A   Clear
4:53 PM 72.0 °F 42.1 °F 34% 30.02 in 10.0 mi NW 5.8 mph - N/A   Clear
5:53 PM 72.0 °F 41.0 °F 33% 30.04 in 10.0 mi NW 9.2 mph - N/A   Clear
6:53 PM 69.1 °F 44.1 °F 40% 30.06 in 10.0 mi WNW 5.8 mph - N/A   Clear
7:53 PM 69.1 °F 46.0 °F 44% 30.07 in 10.0 mi NW 10.4 mph - N/A   Clear
9:53 PM 64.0 °F 45.0 °F 50% 30.09 in 10.0 mi West 3.5 mph - N/A   Clear
10:53 PM 64.9 °F 45.0 °F 48% 30.10 in 10.0 mi WNW 4.6 mph - N/A   Clear
11:53 PM 60.1 °F 43.0 °F 53% 30.10 in 10.0 mi Calm Calm - N/A   Clear